Home > Weather > Horsens > Past weeks

Flag for Denmark Weather for the Past 2 Weeks in Horsens, Denmark

Now
48 °F

Passing clouds.


Feels Like: 45 °F
Forecast: 37 / 60 °F
Wind: 7 mph from Northwest

Location: Billund Lufthavn

Current Time: May 4, 2016 at 10:03:52 AM

Latest Report: May 4, 2016 at 9:20 AM


Visibility: N/A

Pressure: 30.36 "Hg

Humidity: 82%

Dew Point: 43 °F

Location of HorsensLocation

Historic Weather in Horsens — Graph

°F

Horsens Temperature Yesterday

Maximum temperature yesterday: 54 °F (at 2:50 PM)
Minimum temperature yesterday: 39 °F (at 11:50 PM)
Average temperature yesterday: 48 °F

High & Low Weather Summary for the Past Weeks

 TemperatureHumidityPressure
High61 °F (May 2, 1:50 PM)100% (Apr 21, 3:50 AM)30.36 "Hg (Apr 21, 3:50 AM)
Low27 °F (Apr 25, 5:50 AM)36% (May 1, 5:20 PM)29.33 "Hg (Apr 26, 8:50 AM)
Average42 °F79%29.95 "Hg
* Reported Apr 19 8:50 AM — May 4 8:20 AM, Horsens, Weather by CustomWeather, © 2016

Note: Actual official high and low records may vary slightly from our data, if they occured in-between our weather recording intervals... More about our weather records

Advertising

Horsens Weather History for the Previous 24 Hours

Scroll right to see more
 ConditionsComfort  
Time TempWeatherWind HumidityBarometerVisibility
8:20 AM
Wed, May 4
45 °FQuite cool.6 mph93%30.36 "HgN/A
7:20 AM39 °FSunny.No wind100%30.33 "HgN/A
6:20 AM34 °FLight fog.No wind93%30.33 "HgN/A
5:50 AM32 °FLight fog.1 mph100%30.33 "HgN/A
5:20 AM32 °FLight fog.2 mph100%30.30 "HgN/A
4:50 AM32 °FIce fog.1 mph100%30.30 "Hg0 mi
4:20 AM34 °FIce fog.1 mph100%30.30 "Hg0 mi
3:50 AM34 °FIce fog.1 mph100%30.30 "Hg0 mi
3:20 AM37 °FIce fog.2 mph93%30.27 "Hg0 mi
2:50 AM36 °FIce fog.2 mph100%30.27 "Hg0 mi
2:20 AM36 °FIce fog.3 mph100%30.27 "Hg0 mi
1:50 AM36 °FIce fog.3 mph100%30.27 "Hg1 mi
12:50 AM39 °FLight fog.3 mph93%30.27 "Hg1 mi
12:20 AM39 °FFog.6 mph93%30.27 "Hg2 mi
11:50 PM
Tue, May 3
39 °FChilly.6 mph93%30.24 "HgN/A
11:20 PM41 °FQuite cool.6 mph93%30.24 "HgN/A
10:50 PM41 °FQuite cool.6 mph93%30.24 "HgN/A
10:20 PM41 °FQuite cool.7 mph87%30.24 "HgN/A
9:50 PM41 °FQuite cool.8 mph87%30.21 "HgN/A
9:20 PM43 °FQuite cool.9 mph81%30.21 "HgN/A
8:50 PM45 °FPassing clouds.10 mph81%30.18 "HgN/A
8:20 PM46 °FBroken clouds.15 mph71%30.18 "HgN/A
7:50 PM46 °FScattered clouds.16 mph71%30.18 "HgN/A
7:20 PM46 °FPassing clouds.15 mph71%30.15 "HgN/A
6:50 PM50 °FPassing clouds.14 mph62%30.15 "HgN/A
6:20 PM50 °FPartly sunny.14 mph62%30.15 "HgN/A
5:50 PM52 °FPassing clouds.15 mph62%30.15 "HgN/A
5:20 PM52 °FScattered clouds.15 mph62%30.12 "HgN/A
4:50 PM52 °FPassing clouds.14 mph58%30.12 "HgN/A
4:20 PM52 °FPassing clouds.17 mph62%30.12 "HgN/A
3:50 PM52 °FScattered clouds.18 mph67%30.09 "HgN/A
2:50 PM54 °FScattered clouds.15 mph63%30.09 "HgN/A
2:20 PM52 °FScattered clouds.15 mph67%30.07 "HgN/A
1:20 PM52 °FScattered clouds.12 mph72%30.07 "HgN/A
12:50 PM52 °FPartly sunny.9 mph77%30.04 "HgN/A
12:20 PM50 °FBroken clouds.9 mph88%30.04 "HgN/A
11:59 AM48 °FBroken clouds.7 mph94%30.04 "HgN/A
11:20 AM48 °FOvercast.9 mph87%30.04 "HgN/A
10:50 AM48 °FDrizzle. Low clouds.8 mph87%30.01 "HgN/A
10:20 AM46 °FDrizzle. More clouds than sun.9 mph93%30.01 "HgN/A
Weather by CustomWeather, © 2016

See weather overviewHow to use our weather pages